This demonstration page uses our WeatherBlox Daily Observations layout. Learn more.

Left ArrowRight Arrow

39.29038, -76.61219

Hourly Observations for August 17, 2020

Temp ( °F °C ) Dew Point ( °F °C ) Humidity (%) Winds ( mph kmh ) Pressure ( in mb ) Visibility ( mi km ) Precip ( " mm )
12:54 am 00:54 Clear 65 18.3 62 16.7 90 90 W 3 6 29.95 1014 10 16 0.00 0.00
1:54 am 01:54 Partly Cloudy 64 17.8 62 16.7 93 93 W 3 6 29.95 1014 10 16 0.00 0.00
2:54 am 02:54 Mostly Clear 64 17.8 62 16.7 93 93 Calm 29.94 1014 10 16 0.00 0.00
3:54 am 03:54 Clear 64 17.8 62 16.7 93 93 Calm 29.94 1014 10 16 0.00 0.00
4:54 am 04:54 Clear 63 17.2 61 16.1 93 93 Calm 29.95 1014 10 16 0.00 0.00
5:54 am 05:54 Mostly Clear 62 16.7 60 15.6 93 93 WNW 3 6 29.95 1014 10 16 0.00 0.00
6:54 am 06:54 Partly Cloudy 63 17.2 61 16.1 93 93 Calm 29.96 1015 10 16 0.00 0.00
7:54 am 07:54 Partly Cloudy 68 20 64 17.8 87 87 W 3 6 29.96 1015 10 16 0.00 0.00
8:54 am 08:54 Mostly Cloudy 72 22.2 65 18.3 79 79 Calm 29.96 1014 10 16 0.00 0.00
9:54 am 09:54 Mostly Cloudy 76 24.4 65 18.3 69 69 WSW 8 13 29.95 1014 10 16 0.00 0.00
10:54 am 10:54 Partly Cloudy 79 26.1 67 19.4 67 67 WSW 7 11 29.94 1014 10 16 0.00 0.00
11:54 am 11:54 Partly Cloudy 81 27.2 66 18.9 61 61 W 10 17 29.93 1013 10 16 0.00 0.00
12:54 pm 12:54 Partly Cloudy 83 28.3 65 18.3 55 55 VRB 3 6 29.91 1013 10 16 0.00 0.00
1:54 pm 13:54 Mostly Cloudy 83 28.3 65 18.3 55 55 Calm 29.91 1013 10 16 0.00 0.00
2:54 pm 14:54 Mostly Cloudy 85 29.4 66 18.9 53 53 VRB 7 11 29.89 1012 10 16 0.00 0.00
3:54 pm 15:54 Mostly Cloudy 84 28.9 65 18.3 53 53 SSE 8 13 29.86 1011 10 16 0.00 0.00
4:25 pm 16:25 Cloudy with Heavy Rain 71 21.7 63 17.2 76 76 NW 18 30 29.86 1011 2 3 0.03 0.76
4:42 pm 16:42 Mostly Cloudy with Rain 71 21.7 64 17.8 79 79 SW 12 19 29.85 1011 5 8 0.18 4.57
4:54 pm 16:54 Mostly Cloudy with Rain 71 21.7 65 18.3 81 81 S 8 13 29.85 1011 4 6 0.22 5.59
5:54 pm 17:54 Mostly Cloudy 74 23.3 67 19.4 79 79 NE 8 13 29.85 1011 10 16 0.04 1.02
6:54 pm 18:54 Mostly Cloudy 73 22.8 67 19.4 81 81 SE 3 6 29.86 1011 10 16 0.00 0.00
7:54 pm 19:54 Mostly Cloudy 73 22.8 68 20 84 84 Calm 29.86 1011 10 16 0.00 0.00
8:54 pm 20:54 Partly Cloudy 71 21.7 68 20 90 90 S 3 6 29.88 1012 10 16 0.00 0.00
9:54 pm 21:54 Mostly Clear 70 21.1 66 18.9 87 87 Calm 29.89 1012 10 16 0.00 0.00
10:54 pm 22:54 Mostly Clear 68 20 65 18.3 90 90 Calm 29.89 1012 10 16 0.00 0.00
11:54 pm 23:54 Mostly Clear 68 20 64 17.8 87 87 SW 3 6 29.89 1012 10 16 0.00 0.00

Powered by AerisWeather